Вернуться в каталог

STARLINK-31648

АктивенСвязьVLEO
NORAD 59266·PAYLOAD·🇺🇸 United States

Запущен Mar 19, 2024 с Vandenberg Space Force Base

Loading…

Ближайшие Пролёты (ближайшие 24 часа)

TLE

СвежийSource: CelesTrak SupGP

Эпоха: Sep 15, 2026, 02:18 UTC

1 59266C 24050N   26258.09631944  .00022644  00000+0  66903-3 0  2580
2 59266  53.1615  20.6574 0001154  80.0231 347.9804 15.34379387    16

Отслеживайте STARLINK-31648 в реальном времени с AllMySat

Download on the App Store